Powrót do katalogu

SHERPA-LTC2

AktywnyNaukaLEO
NORAD 53754·PAYLOAD·🇺🇸 United States

Wystrzelony Sep 5, 2022 z Cape Canaveral Space Force Station

Loading…

Następne Przeloty (najbliższe 24 godziny)

TLE

ŚwieżeSource: Space-Track

Epoka: Sep 14, 2026, 02:52 UTC

1 53754U 22107BG  26257.11967099  .00003765  00000-0  19649-3 0  9993
2 53754  53.2336 203.6531 0393926 115.0221 249.2195 14.70293231215622

Śledź SHERPA-LTC2 w czasie rzeczywistym z AllMySat

Download on the App Store